This demonstration page uses our WeatherBlox Daily Observations layout. Learn more.

39.29038, -76.61219

Hourly Observations for September 6, 2019

Temp ( °F °C ) Dew Point ( °F °C ) Humidity (%) Winds ( mph kmh ) Pressure ( in mb ) Visibility ( mi km ) Precip ( " mm )
12:54 am 00:54 undefined 71 21.7 61 16.1 71 71 undefined N/A 29.97 1015 N/A 0 0
1:54 am 01:54 undefined 70 21.1 62 16.7 76 76 undefined N/A 29.95 1014 N/A 0 0
2:54 am 02:54 undefined 70 21.1 60 15.6 71 71 undefined N/A 29.94 1014 N/A 0 0
3:54 am 03:54 undefined 69 20.6 59 15 70 70 undefined N/A 29.93 1014 N/A 0 0
4:54 am 04:54 undefined 68 20 58 14.4 70 70 undefined N/A 29.91 1013 N/A 0 0
5:54 am 05:54 undefined 68 20 58 14.4 70 70 undefined N/A 29.9 1013 N/A 0 0
6:54 am 06:54 undefined 67 19.4 58 14.4 73 73 undefined N/A 29.88 1012 N/A 0 0
7:54 am 07:54 undefined 68 20 58 14.4 70 70 undefined N/A 29.87 1012 N/A 0 0
8:54 am 08:54 undefined 69 20.6 58 14.4 68 68 undefined N/A 29.86 1011 N/A 0 0
9:54 am 09:54 undefined 69 20.6 59 15 70 70 undefined N/A 29.86 1011 N/A 0 0
10:54 am 10:54 undefined 70 21.1 59 15 68 68 undefined N/A 29.84 1010 N/A 0 0
11:54 am 11:54 undefined 70 21.1 60 15.6 71 71 undefined N/A 29.84 1010 N/A 0 0
12:54 pm 12:54 undefined 70 21.1 60 15.6 71 71 undefined N/A 29.81 1010 N/A 0 0
1:54 pm 13:54 undefined 70 21.1 60 15.6 71 71 undefined N/A 29.79 1009 N/A 0 0
2:54 pm 14:54 undefined 70 21.1 60 15.6 71 71 undefined N/A 29.78 1008 N/A 0 0
3:54 pm 15:54 undefined 70 21.1 60 15.6 71 71 undefined N/A 29.76 1008 N/A 0 0
4:54 pm 16:54 undefined 70 21.1 60 15.6 71 71 undefined N/A 29.78 1009 N/A 0 0
5:54 pm 17:54 undefined 70 21.1 60 15.6 71 71 undefined N/A 29.79 1009 N/A 0 0
6:54 pm 18:54 undefined 70 21.1 59 15 68 68 undefined N/A 29.8 1009 N/A 0 0
7:54 pm 19:54 undefined 70 21.1 58 14.4 66 66 undefined N/A 29.8 1009 N/A 0 0
8:54 pm 20:54 undefined 69 20.6 58 14.4 68 68 undefined N/A 29.81 1010 N/A 0 0
9:54 pm 21:54 undefined 67 19.4 58 14.4 73 73 undefined N/A 29.81 1009 N/A 0 0
10:54 pm 22:54 undefined 67 19.4 57 13.9 71 71 undefined N/A 29.81 1010 N/A 0 0
11:54 pm 23:54 undefined 66 18.9 56 13.3 70 70 undefined N/A 29.82 1010 N/A 0 0

Powered by AerisWeather